Location: Eastchurch
(51.4000°N, 0.8667°E)
Time: 00:06:39
(UTC+00:00)

Cosmos 1869 Rocket - Pass Details

Date: 19 January 2026
Orbit: 597 x 626 km, 82.5° (Epoch: 9 February)

Event Time Altitude Azimuth Distance (km) Brightness Sun altitude
Rises 18:20:12 0° 345° (NNW) 2,902 7.1 -17.6°
Reaches altitude 10° 18:22:29 10° 340° (NNW) 1,987 6.3 -18.0°
Maximum altitude 18:26:43 49° 266° (W) 791 4.5 -18.6°
Drops below altitude 10° 18:30:54 10° 191° (SSW) 1,953 6.4 -19.3°
Sets 18:33:08 0° 186° (S) 2,848 7.2 -19.6°
